No,Time,AirTemp_Mean,AirTemp_Max,AirTemp_Min,Humid_Mean,Humid_Max,Humid_Min,WindSpeed,WindDirection,NetRad,Baro,Rain
1,2019-04-22,12.8,18.1,8.3,56.6,85.4,30.7,1.72,326.3,39.5,1000.3,0
2,2019-04-23,9.9,12.8,7.3,75.9,87.5,60.5,1.24,219.9,42,994.4,0
3,2019-04-24,10.5,11.9,7.5,79.7,87.2,72,1.42,227.2,46.7,986.5,0
4,2019-04-25,9.8,12.3,7.5,79.5,87.3,63.4,1.36,3.2,-16.9,990.7,3.4
5,2019-04-26,9.3,13.5,5.1,76.7,89.3,54.4,2.37,22,-7.1,995.2,0.2
6,2019-04-27,8.5,10.8,6.4,72.9,84.1,58.9,1.68,207.3,26.1,993.9,0
7,2019-04-28,9,14.3,4.9,72.3,84.1,50.2,1.39,211.4,87.5,1012.5,0
8,2019-04-29,8.6,14.4,4.4,77.3,90,54.8,1.15,356.3,62.6,1018.5,0
9,2019-04-30,9.5,18.3,5.5,76.2,91.6,41.9,1.73,11.1,62.8,1016.6,0
10,2019-05-02,8.9,13.1,6.7,69.4,79.7,50,2.22,210.1,46.3,1006.6,0
11,2019-05-03,6.6,8.9,3.1,62.4,77.7,43.5,1.68,204.5,37.8,1008.1,1.4
12,2019-05-04,5.8,9.9,2.5,64.6,78.9,45.1,2.78,202.6,48.9,1014.1,0
13,2019-05-05,7.8,10.3,5.4,52.4,73,37.8,1.52,345.8,54,1016.2,0
14,2019-05-06,6.6,8.3,4.7,65.1,82.7,51.5,1.48,234.7,39.2,1012.5,0.6
15,2019-05-07,6.6,8.7,4,69.1,84.7,59.2,1.11,295.7,37.8,1005.9,0.2
16,2019-05-08,7.4,8.7,6.6,84.1,87.3,79.1,1.41,239.1,-23.2,990.2,14.2
17,2019-05-09,7.1,8.7,4.6,69.2,86,51.3,2.37,212.3,49.7,993,3.4
18,2019-05-10,7.3,12,2.4,62.6,79.8,44.4,1.04,262,84.2,1001.7,0
19,2019-05-11,8.2,12.4,4.3,63.9,82.4,43.7,1.21,215.3,62.7,1014.4,0
20,2019-05-12,10.1,14.9,4.3,59.8,79.8,39.1,1.22,289.8,89.2,1027.5,0
21,2019-05-13,12.8,20,5.2,54.5,79.4,35.6,1.56,350.9,41.6,1029.8,0
22,2019-05-14,15.8,21.3,9.7,50.6,64.6,37.4,1.25,305,76.8,1025.2,0
23,2019-05-15,14.9,22.5,9.7,57.3,78.4,38.7,1.39,324.3,68.6,1018.6,0
24,2019-05-16,11.3,14.9,7.1,60.6,79.8,42.5,1.39,235.7,89.4,1015.1,0
25,2019-05-17,11.5,15.2,8.9,74.6,89.2,52.5,2.4,210,99,1006.5,0.6
26,2019-05-18,10.7,12.2,9.2,84.9,89.5,77.2,0.97,212.9,-9.3,999.9,2
27,2019-05-19,12.5,15.3,8.6,71.4,89.7,55,1.28,358.1,12,1002.2,0
28,2019-05-20,13.3,17.5,10.6,68.3,83.1,43.7,1.32,342.2,46.7,1005.3,0
29,2019-05-21,12.2,15.9,8.2,67.9,81.3,52.4,1.9,300.6,92,1009.6,0
30,2019-05-22,12.5,17.4,7.2,52.3,75.1,34.3,2.64,355.3,90.8,1008.5,0
31,2019-05-23,12.9,18.7,7.3,54.2,79.1,27.3,3.02,354.2,87.9,1005.8,0
32,2019-05-24,12.3,17,8.9,64.7,76.4,48.6,1.92,333.5,29.3,1007.5,0
33,2019-05-25,12.5,16.9,8.2,70.4,82.4,44.4,1.79,357.5,18.8,1007.9,1.4
34,2019-05-26,14.6,17.1,11.7,69,84.5,50.4,3.18,354.8,46.1,998.6,2.4
35,2019-05-27,9.7,11.9,7.9,76.3,87.1,63.1,1.78,334.8,5,998.5,12.2
36,2019-05-28,8.8,12,7.2,72.9,88.5,46.1,1.32,223.5,51.8,1005.6,4.6
37,2019-05-29,10.6,14.5,6.1,72.6,89.3,48.9,1.83,16.9,-2.1,1005.8,1
38,2019-05-30,15.9,18.4,11.5,78.5,89.9,68,3.22,356,6,1005.1,1.6
39,2019-05-31,15.1,16.7,13.6,75.6,88.8,62.9,3.41,358.1,10,1009.2,1.6
40,2019-06-01,14.5,17,11.5,71.8,79.3,59.6,1.79,358.5,17.8,1008.6,0
41,2019-06-02,16.1,20.9,13.2,72.2,88.8,50.1,2.92,3.3,32.1,995.9,1
42,2019-06-03,13.9,16.3,11.6,55.7,69,37.9,4.41,357.4,90.8,997.6,0
43,2019-06-04,12.8,16.9,9.7,69.2,89,50.4,1.47,344.5,24.6,997.7,11
44,2019-06-05,13.1,16.1,10.3,70,89.6,52.6,2.39,10.9,27.8,994.4,0.8
45,2019-06-06,13.8,18.2,9.7,56.5,81,34.6,2.24,4.5,63,999.6,0
46,2019-06-07,12.8,17.2,8.5,69.8,88.3,44.9,1.4,235.9,2.9,999.5,8.8
47,2019-06-08,11.2,12.8,10.2,80.3,90.5,61.4,2.42,221.4,3.4,998.4,29.8
48,2019-06-09,13.5,17.2,9.4,57,81.3,31.7,2.54,356.8,90.5,1009,0
49,2019-06-10,12.2,16.8,6.8,65.1,79.7,43.7,1.88,220.3,97.6,1011.5,0
50,2019-06-11,10.6,11.9,9.3,73.1,86.1,61.6,3.1,209.8,21.9,1011.9,1
51,2019-06-12,10.8,11.9,9.2,89.3,90.9,84.9,3.59,206.9,-3.6,1003.9,45.8
52,2019-06-13,9.5,10.9,8.6,85.5,90.1,74.9,3.05,204.3,2.5,995.6,34.2
53,2019-06-14,11.5,16.2,9,76.2,89.1,42.9,1.06,14.7,32.5,998.8,3
54,2019-06-15,13.4,17.6,10.9,73.9,86.7,55.2,1.42,19.1,15,1001.6,0.6
55,2019-06-16,13.5,18.3,8.9,66.5,86.8,41.3,2.11,10.6,42.1,1003,0.6
56,2019-06-17,15.3,18.9,12.3,60.2,83.7,41.1,4.04,0.1,78.4,1003.3,0
57,2019-06-18,15.6,20,11.1,57.9,78,37,2.35,358.4,57,1003.7,0
58,2019-06-19,14.2,18.8,11,64.8,83.5,39.6,1.28,0.4,31.2,999.7,2
59,2019-06-20,13.6,17.2,10.3,57.6,74.9,35.6,2.77,355.1,86.3,1000.8,0
60,2019-06-21,13.5,18.4,9.8,58.6,78.3,38.2,2.31,354.6,82.2,1009.1,0
61,2019-06-22,14.6,19.7,9.3,60.8,72.9,40.3,1.35,324,50.8,1013.4,0
62,2019-06-23,14.8,18.1,13,69.2,89.6,49.5,1.21,239.2,66.2,1013.4,2.4
63,2019-06-24,14.7,17.2,13.3,87.7,91,79.7,1.4,209.5,13.1,1010,5.2
64,2019-06-25,12.4,13.6,11,88.1,91.3,84.7,2.55,204.4,-10.4,1015.8,3.4
65,2019-06-26,12.1,15.6,10.1,73.4,88.9,55.4,1.8,208.8,99.6,1023.7,0.4
66,2019-06-27,15.2,20.8,8.2,65.9,85,44.7,1.33,246.8,108.6,1024.2,0
67,2019-06-28,15,18.3,12.4,71.3,81.9,58.5,1.23,229.3,92.8,1018.2,0
68,2019-06-29,18.7,26,12.9,71.2,87.1,46.5,1.52,356.8,67.4,1006.2,0.2
69,2019-06-30,17.2,20.3,14.5,64.8,82.5,49.7,3.51,355.1,31.9,1002,0
70,2019-07-01,15.9,19.1,12.2,61.6,74.7,47.8,3.36,352.7,95.5,1007.7,0
71,2019-07-02,14.7,18.6,10.9,60.2,80.8,38.7,2.03,349.6,53.8,1016.4,0
72,2019-07-03,15.1,21.5,9.7,59.3,74.4,38.9,1.57,346.6,78.7,1019.6,0
73,2019-07-04,15.2,18.7,12,65.7,76.6,52.4,2.82,352.8,17.6,1014.5,0
74,2019-07-05,16.1,19.6,13.2,68.8,77.9,56.9,2.89,352.5,32.5,1008.1,0
75,2019-07-06,14.7,18.1,12.3,60.1,78.7,42.1,1.89,215.6,80.7,1005.7,0
76,2019-07-07,13,17.4,10.3,64,76.5,44.6,1.45,205.7,62.3,1010.6,0
77,2019-07-08,13.7,18.9,8.6,64.3,81.4,46.9,1.08,339.2,62.3,1013.7,0.4
78,2019-07-09,15.1,16.9,12.9,81.9,87,72,1.33,8.1,-17.3,1011.4,2.4
79,2019-07-10,17.8,21.8,14.6,74,89.1,55.4,1.82,358.1,44.1,1007.1,1.8
80,2019-07-11,17.6,22,14.3,73,87.4,52.3,1.5,356,55.9,1002,10.6
81,2019-07-12,16.3,20.5,13.5,75.7,87.2,60.1,1.67,252.1,67.5,1006.8,5.2
82,2019-07-13,15.3,17.6,13.6,81,86.9,68.3,1.09,211.7,16.7,1014.7,2.6
83,2019-07-14,15.1,18.1,12.9,72.4,87.8,56.5,1.53,214.5,88.4,1017.2,0
84,2019-07-15,16.4,21.1,11.9,70,84.1,52.8,1.33,266.7,90.7,1014,0
85,2019-07-16,18.6,23.3,12.9,66.6,86.7,46,1.72,354.9,69.4,1009.5,0
86,2019-07-17,17.2,22.3,14,69.2,87.5,40.6,2.71,4,36.8,1003,1.4
87,2019-07-18,16.5,20.4,12.9,64.2,83.9,44.1,2.71,357.1,57.3,998.6,0.2
88,2019-07-19,16.5,20.6,13.1,72.9,84.5,51.9,1.75,19.1,35.1,998.2,0
89,2019-07-20,17.4,21,13.5,70.7,84.5,48.2,2.19,1.2,50.6,995.8,14.2
90,2019-07-21,16.7,19.9,12.4,66.8,86.2,51,2.86,1.9,20.6,1006.8,6.6
91,2019-07-22,20.4,24,15.8,68.8,87.7,52,5.13,357.2,107,1006.1,0
92,2019-07-23,21.7,28.4,17.5,63.8,75.8,44.5,1.82,342.9,79.6,1008.5,0
93,2019-07-24,21.5,25.3,18,67.8,89.6,47.6,1.89,359.9,59.7,1003.5,5.8
94,2019-07-25,22.6,29.1,17.2,63.6,82.2,42.2,1.13,242.2,67.8,1002.6,0
95,2019-07-26,20.6,25.2,17.6,73.6,86.8,48,1.36,348.9,0.2,1001.6,3.8
96,2019-07-27,16.6,18.4,15.3,87.2,90.8,80.3,1.39,219.7,-9.3,999.8,8.8
97,2019-07-28,18.2,20.1,16.2,82.1,89.1,73.2,1.38,212.8,19.2,998,0
98,2019-07-29,17.4,19.8,14.8,79.5,88.3,67.9,1.17,332.5,6.3,999,0
99,2019-07-30,17.1,20.3,13.9,82.6,90.1,70.8,1.25,222.8,12.8,999.6,1.8
100,2019-07-31,17.5,19.5,16.2,82.7,89.8,71,1.9,212.5,34.5,1001.3,6
101,2019-08-01,16.8,18.3,16,80.8,87.3,71,2.02,201.7,23.7,1010.4,0.2
102,2019-08-02,17.2,19.7,15.4,79,89.1,59.9,1.61,201.1,31.3,1013.1,0
103,2019-08-03,17.6,20.8,14.9,77,88.8,62.4,1.05,225.3,57.9,1010.7,0
104,2019-08-04,19.5,23.8,15.9,71.9,87.9,49.3,1.21,5.3,28.9,1003.6,9.6
105,2019-08-05,17.6,20.8,14.9,66.8,88.4,44,2.68,0.1,53.4,997.3,0.2
106,2019-08-06,16,19.5,13.1,73.3,85.2,55.7,2.12,6.7,1.7,993.4,7.8
107,2019-08-07,16.4,19.9,13.2,66.3,81.1,48.1,2.86,354.5,61.2,992.8,0
108,2019-08-08,16.4,19.9,13.4,70.8,83.6,51.4,1.68,308.7,50.3,1000.4,0
109,2019-08-09,17.7,23.3,14.6,79.7,89.5,57.1,1.56,349,29.6,989.8,25.6
110,2019-08-10,17.3,20.9,15.8,80.1,89.5,64.9,2.76,3.1,20,984.9,6.8
111,2019-08-11,14.3,16.5,11,83.3,89.7,72.3,1.83,326.2,2,996.8,37.4
112,2019-08-12,12.7,16.9,9.8,71.6,89.3,40.8,1.49,349.6,66.4,1004.5,3.2
113,2019-08-13,13.4,17.7,10.2,66.3,85.9,43.3,2.35,353.8,48.4,1006.3,0
114,2019-08-14,13.6,16.1,10.4,80.9,89.1,68,1.46,15.8,-2.5,1000.2,2.6
115,2019-08-15,15.6,18.5,12.6,66.3,89.6,43.4,2.55,355,44.1,999.1,0.4
116,2019-08-16,14.8,17.6,12.3,82,88,71,2,18,1,994.6,4.8
117,2019-08-17,16.2,19.2,13.9,63.4,82.1,43.2,3.46,359.1,57.3,989.6,0.2
118,2019-08-18,15.1,17.9,12.6,67.6,81,54.7,3.56,1.2,30.8,990.2,0
119,2019-08-19,14.9,18.4,12.4,64.7,77.9,44.7,3.15,354.9,58.6,999.9,0
120,2019-08-20,14.5,18.3,11.5,65.8,82.9,42,2.51,355.1,59.2,1010.6,0.2
121,2019-08-21,15.4,20.1,10.8,66.4,84.6,46.7,3.73,0.7,24.8,1012.9,0
122,2019-08-22,16.5,19.3,13.6,77,85.8,65.5,2.7,0,-1.5,1009.4,1.2
123,2019-08-23,19.4,21.5,16.8,67.7,81.9,57.9,2.75,358.3,20.3,1012.8,0
124,2019-08-24,19.9,27,14.6,63.4,87.5,29.6,1.21,17.2,28.5,1010.8,0
125,2019-08-25,20,26.8,13.3,61.1,81.1,38.2,1.02,291.3,48.7,1010.5,0
126,2019-08-26,18.8,24.3,15.1,74.4,88.9,55.9,1.33,311.6,51.9,1009.5,0
127,2019-08-27,18.2,23.4,13.8,76.3,90.3,55,1.03,295.2,37.8,1006.5,0.2
128,2019-08-28,15.6,17.5,11.5,73,85.1,57.6,2.01,0.1,-15,1002.7,1.8
129,2019-08-29,15.5,18.7,11.1,68.7,82.8,46.4,3.8,1.4,28.6,1005.4,0
130,2019-08-30,17.5,19,16.2,64.5,71.8,55.1,4.68,358.3,11.5,1004.1,0
131,2019-08-31,15.8,18,11.4,62.3,73.5,45.6,3.33,2.6,60.8,998.2,0
132,2019-09-01,13,16.8,10.7,64.7,76.2,46.9,2.53,353,26.6,1006.2,0
133,2019-09-02,13.7,16.7,9,70.7,81.2,61.6,3.28,356.6,-3.5,1009.1,0.4
134,2019-09-03,17.1,19.5,14.9,72.1,82.4,63.5,3.03,357.3,22.3,1007.4,0
135,2019-09-04,13.3,16.4,10.3,70.9,83.9,47.4,2.8,349.1,-22.8,1001.7,3.4
136,2019-09-05,12.4,17.4,7,64.3,78.1,49.2,2.85,352.9,28.3,1013.3,0
137,2019-09-06,14.3,16.9,11.5,65.7,80.3,49.5,3.08,354,40,1007.1,0.2
138,2019-09-07,11.5,14.6,8.1,69,83.4,52.4,1.73,210.9,29.8,1016.8,0
139,2019-09-08,11.2,18.2,5.4,69.8,84.2,42.7,0.96,337.8,14.9,1014.1,0
140,2019-09-09,12.3,16.2,10.3,74.5,85.7,54.7,1.3,14.7,19.9,1004.4,0
141,2019-09-10,12.6,17.7,8.1,73.2,90.3,47.4,1.99,358.4,35.6,1007.9,1.2
142,2019-09-11,16,17.7,13.7,65.5,76,51.8,3.28,354.6,14.1,1004.7,0.2
143,2019-09-12,15.3,19.6,10.5,71.8,87.2,61.5,2.39,354.6,-10.6,1013.3,2.4
144,2019-09-13,12.5,16.7,9,67.4,80.2,48.8,2.13,352.5,19.5,1025.8,0
145,2019-09-14,13.8,17.9,6.9,60.9,80.2,38.6,3.66,356.8,5,1019.2,0
146,2019-09-15,13.1,16.4,9.4,69.3,82.4,57.3,2.66,352.7,-20.8,1013.5,0
147,2019-09-16,11.4,15.9,7,67.3,84.3,50,1.95,350.9,6.1,1014.1,0
148,2019-09-17,11.3,15.7,8.7,61.5,80.5,38.1,1.72,313.3,11,1017.9,0
149,2019-09-18,11.9,16.1,7.2,66.6,79,47.6,1.98,353.1,23.2,1021.2,0
150,2019-09-19,14.4,19.8,11,73.8,85.4,54.4,1.92,352.5,17.5,1021.9,0
151,2019-09-20,15.3,23.3,8.1,68.6,86.9,41.2,1.22,0.5,7.4,1016.7,0
152,2019-09-21,14.1,18.9,9.9,75.5,88.4,60.2,0.88,246.7,3.3,1005.9,0
153,2019-09-22,14.4,18.5,10.5,82.5,90.2,69.4,0.91,232.4,3.3,995.9,10.8
154,2019-09-23,15.7,18.6,13.4,73.4,90.3,47.1,2.05,11.8,8.3,997.4,0.4
155,2019-09-24,14.9,16.5,13.8,87.7,90,83.1,1.31,342.9,-13.4,990,14.8
156,2019-09-25,14.7,16.9,13.5,86.5,89.7,77.4,1.03,13.9,-7.5,990.1,7.2
157,2019-09-26,14.7,17.6,13.1,74.2,89.1,54.2,2.48,4.7,7,987.6,3.8
158,2019-09-27,12.4,15.3,10.8,80.4,86.1,66.7,1.83,5.3,-30.7,987.9,8.2
159,2019-09-28,12.5,16.5,10.4,76.5,89.7,56.9,1.86,354.6,12.3,992.4,6.6
160,2019-09-29,11.7,12.9,10.7,85.2,89.4,80.2,1.73,213.2,-24.5,990.1,11.2
161,2019-09-30,11.3,15.1,9.1,78.5,87.3,59.8,1.6,302.7,-14,998.8,7.2
162,2019-10-01,9.1,11.4,5.9,75.4,87.6,49.2,1.82,218.3,-19.8,997.4,14.6
163,2019-10-02,8.4,12.6,3.7,65,78.7,50.9,1.58,341.7,-26.8,1009.4,0
164,2019-10-03,8.1,10.8,3.9,72.9,87.4,60.4,1.09,356,-16.1,1005.6,10
165,2019-10-04,10.6,12,9.1,86.9,89.5,81.2,1.02,220.6,-15.2,997.8,7.4
166,2019-10-05,11.2,13.3,8.8,84.3,91,73.5,0.73,262.3,-5.7,1006.2,0.6
167,2019-10-06,11,11.7,10.1,85.5,88.9,79.5,0.93,247.7,-25.4,1003.8,19
168,2019-10-07,11.1,14.5,9.5,79.8,86.6,67.5,1.86,15,-21.8,1000.6,0.2
169,2019-10-08,11.9,15.2,8.8,66.3,84.7,44.9,3.06,357,-6.8,989.7,0.2
170,2019-10-09,11,13.3,9.5,68.6,76.1,54.1,3.2,355.6,-9,989,0
171,2019-10-10,12.3,14.4,10.2,67.9,79.8,54.7,3.46,357,-25.1,992.3,0
172,2019-10-11,12.5,14.9,11.1,64.7,83.8,48.5,3.47,355.5,-13.6,989.1,1
173,2019-10-12,11.3,13.8,9.1,68,81.3,51.7,1.79,356.5,-29.8,995.2,0
174,2019-10-13,9.6,11.4,7.6,86.1,89.6,77.9,1.09,352.2,-24.2,994.5,6.8
175,2019-10-14,10,13.9,6.5,82.1,89.2,65.9,1.02,348,-11.4,999.7,0.8
176,2019-10-15,10.7,14.1,8.6,81.7,89.6,65.5,1.22,340,5,993.8,7.2
177,2019-10-16,10.3,13.5,6.4,78.4,87.9,61.7,1.78,2.7,-15.5,991.4,0.2
178,2019-10-17,9.4,14.6,5.4,75.9,86.1,57.4,1.59,14.8,-13.2,993.3,0
179,2019-10-18,9.7,12.6,7.4,81.1,88.5,59.8,1.01,5.8,1.3,986.6,7
180,2019-10-19,8.4,10.5,6.3,81.8,88.2,73.5,1.49,221.8,-18.5,990.5,5.8
181,2019-10-20,8.5,9.5,7.5,82.6,88.2,72.5,2.77,203.7,-23.7,1005.6,8.4
182,2019-10-21,8.3,10.3,5,73.8,88.3,55.4,1.62,221.6,-9.4,1013.9,1
183,2019-10-22,9.2,11.9,4.1,68.8,82.1,59.6,2.33,358.9,-12.9,1009.9,0
184,2019-10-23,10.3,14.3,7.8,71.2,83.4,47.9,2.07,13.1,-14.9,1001.8,0
185,2019-10-24,10.4,13.1,7.6,74,83,57.5,1.95,3.3,-11.7,993.5,0
186,2019-10-25,5.8,8.7,4.6,79.1,87.9,56,1.74,344.3,-32.3,998.5,14
187,2019-10-26,5.8,8.4,4.8,76.8,86.5,54.2,2.13,358.3,-27.5,998.3,0.6
188,2019-10-27,7.8,11.3,4.5,68.9,80.1,54.5,2.9,351.4,-33.6,1010.7,0
189,2019-10-28,5.1,9.1,2.6,72.4,82.8,51.3,1.6,287.2,-35.3,1019,0
190,2019-10-29,6.3,10.7,3.2,76.1,87.8,56.4,0.81,226.3,-21.1,1021.9,2
191,2019-10-30,6.7,10.9,2.7,78.3,89.9,58.8,0.72,259.5,-22.3,1020.2,1.4
192,2019-10-31,8,10.7,4.9,65.5,80,52.4,0.86,51.9,-4.8,1012,0
193,2019-11-01,9.1,12,7.1,87.8,90.3,80,1.15,19.6,-10.5,986.9,6
194,2019-11-02,10,12.1,7.1,81.4,90,64.2,1.3,358.9,-17.9,967.5,5.6
195,2019-11-03,8.8,11.3,7,85,88.3,76.2,1.69,352.2,-15.7,969.9,5.8
196,2019-11-04,9.6,11.1,8.4,84.8,89.4,76.8,1.62,221,-16.1,978.6,16.8
197,2019-11-05,7.9,10.1,4.6,79.3,90.5,61.3,2.38,222.8,-21.6,995,20.4
198,2019-11-06,5.4,7.3,3.5,81.4,88.1,72.1,1.05,8.1,-20.7,994.3,1
199,2019-11-07,7.9,9.8,5.6,74,86.7,57.6,1.7,233.3,-23.4,989.5,2.6
200,2019-11-08,5.2,7.5,3.4,78.3,85.8,62,2.04,205.6,-40.3,1001.6,9.4
201,2019-11-09,3.7,7.5,-0.6,72.6,91.2,47.3,0.85,249.6,-31.5,1000.1,0
202,2019-11-10,5.6,8.2,3.6,67.2,87,46.7,1.24,255.9,-21.1,1004.4,2.6
203,2019-11-11,6,8.4,4.5,75.6,85,64.1,3.28,358.2,-30.1,985.3,1.2
204,2019-11-12,5.8,8.7,3.8,79.6,85.5,71.1,2.37,324.7,-36.9,983.9,5.4
205,2019-11-13,3.5,7.4,1.7,75,86.6,56.4,1.21,345.9,-34.9,989.2,2
206,2019-11-14,5,6.6,3.4,80.9,86.4,71.2,2.77,204.6,-48,996.5,15.6
207,2019-11-15,7.6,9.6,6,78.1,87.1,61.7,2.36,213.5,-35.9,1003,11.8
208,2019-11-16,7.9,8.4,6.8,87.7,89,82.7,1.92,205.9,-22,999.3,11
209,2019-11-17,5.9,7.5,3.1,83.7,88.6,77.9,1.62,204.4,-32.6,1006,0.6
210,2019-11-18,3.2,6.7,0.8,76.6,85.9,61.9,1.22,347.6,-49.2,1009.4,0
211,2019-11-19,1.3,3.1,-1,76.1,85.8,63,1.61,7.5,-36.6,1006.5,0
212,2019-11-20,4.7,7.5,2.5,77.4,89.3,63.6,1.35,26.1,-22,1003.9,0
213,2019-11-21,5.7,7.6,0,70.4,83.5,63,0.91,282.8,-19.9,998.4,0
214,2019-11-22,7.5,9.1,5.6,79.7,86.5,65.7,0.7,239.7,-20.9,990.2,2
215,2019-11-23,9,9.3,8.8,86.9,89.3,81.7,1.22,241.6,-20.8,992.5,14
216,2019-11-24,8.6,9.1,7.8,87.5,88.9,85.4,0.7,2.9,-16.6,994.6,0.6
217,2019-11-25,9.1,10.1,8.1,86.6,89.3,78.5,0.73,283.9,-8.8,993.3,2.4
218,2019-11-26,9.6,10,8.3,88.6,89.9,84.8,0.78,2.7,-17.7,983.8,1.4
219,2019-11-27,7.9,9.6,6,89.9,91.6,86.6,2.17,204.5,-18.2,977.7,12.2
220,2019-11-28,6.7,9.5,3.7,81,89.5,65,2.96,203.9,-38.1,989.3,12.8
221,2019-11-29,3.1,6,0.8,77.5,83.6,64.5,1.17,311.7,-49.3,1008.8,0.8
222,2019-11-30,1.2,5.8,-0.9,82.3,88.3,67.3,0.72,338.6,-44.1,1016.1,0
223,2019-12-01,1,3.3,0,80.6,86.3,72.1,1.97,348.3,-49.3,1018.9,0
224,2019-12-02,4.9,7.2,0.9,78.3,82.6,72.8,2.62,352.5,-19.3,1019.9,0
225,2019-12-03,6,8.2,2.3,74.2,84.2,62.8,1.91,354.8,-40.9,1013.9,0
226,2019-12-04,7,9.4,3.2,73.6,85.6,63.1,2.55,358.3,-31.1,1007.1,0
227,2019-12-05,9.5,13.3,5.3,68.1,79.8,58.3,4.95,356.2,-26.3,997.5,0.4
228,2019-12-06,10.6,12.8,8.4,77,84.5,66.5,2.93,354.8,-34,988.7,1
229,2019-12-07,9.4,11.3,7.9,75.5,81.2,68.6,3.91,357.3,-23.1,994.1,0
230,2019-12-08,7.8,12.1,5.3,67.8,80.1,56.7,5.18,355.3,-54.2,976.8,2
231,2019-12-09,5,6.9,1.6,66,77.7,51.2,2.31,313.8,-56.3,999.8,0
232,2019-12-10,6.3,12,1.4,76.4,85.1,62.2,3.82,8.3,-35.4,991.8,3.8
233,2019-12-11,4.8,6.7,1.6,69.7,79.9,58.3,3.32,356.6,-55.9,988.6,0.2
234,2019-12-12,2.7,4.3,1.2,83.1,88.7,71.7,1.3,13.2,-24.6,974.9,3.6
235,2019-12-13,4.4,7.1,1.7,79.4,88.3,69.7,3.07,353.7,-34,963.8,2.2
236,2019-12-14,4.5,6,2.7,69.2,83.2,58.3,3.94,356.3,-39.4,970.9,1
237,2019-12-15,3.6,6.3,1.8,73.4,84.4,54.8,1.91,359.1,-35.7,978.3,0
238,2019-12-16,4.4,6.9,1.5,72.7,83.8,58.9,2.34,4.3,-49.8,985.9,0.8
239,2019-12-17,2.9,6.4,0.7,79.9,86.7,67.8,1.73,1.7,-44.2,989.7,0
240,2019-12-18,2.7,7.3,0,84.7,90.2,74.1,1.58,13,-29.8,995.8,3.8
241,2019-12-19,9.5,10.7,7.2,84.4,88.9,74,1.62,22,-14.2,983.5,4.2
242,2019-12-20,7.6,9.5,6.2,80.6,85.8,72,1.78,3.4,-22.9,969.3,0
243,2019-12-21,5.1,6.3,3,84.6,89.1,71.1,1.3,12.7,-29.7,968.9,0
244,2019-12-22,5,8.6,2.2,82.5,90,60.8,1.08,353.1,-25.8,975,0
245,2019-12-23,7,8.7,3.7,72.7,86.4,65.4,3.2,355.2,-28,991,0
246,2019-12-24,5.4,6.4,4.7,83.6,89.6,68.9,1.21,358.3,-23.2,996.6,3.8
247,2019-12-25,5.8,7.6,4.6,78.7,85.3,71.5,1.34,352.5,-29.2,1012.6,0
248,2019-12-26,6.3,7.5,5.1,76.4,82.5,70.5,0.71,259.5,-16.4,1010.1,0
249,2019-12-27,6.9,7.4,6.6,81.3,87.6,74.1,1.88,18.4,-12.8,1018.5,0.4
250,2019-12-28,8.9,12.9,7.1,76.1,88.9,47.3,2.1,9.4,-22.5,1021.3,0
251,2019-12-29,10.1,12.6,7.6,66.1,81.2,52.1,2.53,1.8,-21.9,1016.9,0
252,2019-12-30,9.1,11.3,4.4,68.8,83.5,55.3,2.88,354.3,-38.9,1015.4,0
253,2019-12-31,3.2,6.6,0.3,79.9,85.7,65.9,1.31,6.1,-55.9,1024.7,0
254,2020-01-01,2.3,5.9,-1.4,82,89.6,71.5,1.26,3.2,-48.7,1017,0
255,2020-01-02,7.9,11.2,2.1,73.5,86.2,65.4,3.12,359.9,-31.9,1001.4,0
256,2020-01-03,6.4,11.1,4.2,72.4,87.8,61.1,2.52,350.4,-43.5,1009.8,1.6
257,2020-01-04,7.9,9,7.4,74.3,79.4,70.8,3.43,353.3,-22.7,1019.2,0
258,2020-01-05,9.7,11,7.9,69.7,76.8,63,2.94,355.9,-20.8,1016.4,0
259,2020-01-06,8.5,9.9,6.5,68.8,74.9,63.9,3.48,0.7,-31.6,1004.3,0
260,2020-01-07,10.9,13.8,5.8,67.5,75.8,56.8,5.86,357.5,-27,1000.7,0
261,2020-01-08,7.6,12,5,63.4,79.5,54.4,2.97,355.6,-46.5,1006.8,0
262,2020-01-09,4.8,5.6,3.6,84.6,88.2,79.4,1.97,206.9,-29.4,997.2,11
263,2020-01-10,4.6,8.5,1.5,73.7,82.3,63.2,2.48,359.8,-38.5,1010.5,0.2
264,2020-01-11,10.6,13.3,8.1,70.2,78.5,64,6.13,358.1,-30.4,1000.8,0
265,2020-01-12,5.9,8.5,3.7,71.7,82.2,60.9,1.87,358.2,-43.6,1003.1,0
266,2020-01-13,5.3,7.7,2.4,78.3,85.7,65.9,3.12,10.4,-38.8,988.6,2.6
267,2020-01-14,5.3,7.5,3.8,74.2,87.3,58.8,3.16,3.7,-48.3,977.4,5.6
268,2020-01-15,6.6,8.5,4.7,64.2,73.4,53.6,5.24,356.3,-51.7,989,0.2
269,2020-01-16,7.4,11,4.8,76,84.4,64,2.9,14.3,-38.3,997.3,0
270,2020-01-17,5.9,8.4,4.1,74,82.1,67.1,2.05,354.4,-36.8,998.7,4
271,2020-01-18,4.1,6.3,2.8,72.9,77.9,64.1,2.65,352,-56.8,1016.8,0
272,2020-01-19,4.5,7.1,1.6,69.3,80.1,47.7,2.24,352.3,-38.9,1034.2,0
273,2020-01-20,7,8.8,4,68.3,77.7,49,2.62,353.8,-37.8,1034.3,0
274,2020-01-21,8.3,9.5,6.8,79.4,85.7,69,2.28,351.2,-25.7,1030.3,0
275,2020-01-22,8.8,10.1,6.9,83.5,87.4,75.8,2.59,351.8,-31.2,1028.1,0
276,2020-01-23,8.2,9.5,7.1,79.7,88,72,2.25,353.1,-11.7,1020.5,0
277,2020-01-24,7.7,8.6,6.5,79.1,85.9,71.7,2.08,354,-20.6,1011.6,0
278,2020-01-25,6.8,9.1,4.7,74.4,86.8,64.5,2.52,2.1,-18.5,1004.7,0
279,2020-01-26,6.1,9,3.1,76.8,84.7,59.8,2.11,12.1,-36.6,994.2,0
280,2020-01-27,4.4,7,2.5,73.1,84.1,55.1,2.48,2.9,-40.4,984.7,0.6
281,2020-01-28,4.1,5.6,2.5,74.2,85.8,67.8,2.95,355.9,-32.1,979.8,0
282,2020-01-29,6.6,10,4,69.4,76.7,62.9,4.27,355.1,-24.9,990.3,0.2
283,2020-01-30,9.6,12.2,8.3,67,80.5,56.8,4.66,356.5,-21.1,986.6,0
284,2020-01-31,10.5,13.4,7.4,69.4,77.9,59.3,4.51,356.8,-24.6,986.2,0.4
285,2020-02-01,8.3,10.5,5.4,70.3,87.1,58.8,4.56,354.9,-26.2,985.9,0.8
286,2020-02-02,6.8,10.4,4.4,77.1,87.5,65.3,1.86,2.2,-22,992.7,0.6
287,2020-02-03,6.6,9.5,3,64.7,81.1,48.8,4.59,355.2,-46.1,995.2,1.2
288,2020-02-04,5.8,9.2,2.8,65.1,76,50,2.82,329.5,-34.1,1010.7,0.2
289,2020-02-05,5.1,8,2.4,72.9,84,62.3,1.92,355.5,-25.1,1025.2,0
290,2020-02-06,5.5,9.8,1.7,74.7,85.6,58.7,1.28,6,-22.9,1021,0
291,2020-02-07,3.6,6.5,1.5,80.4,90,63.4,2.38,21.2,-10.1,1007,0
292,2020-02-08,7.6,9.2,5.5,65.7,82.6,49.3,5.07,3.9,-27.1,994.7,1
293,2020-02-09,8.9,12,6.2,72.5,86.6,56.7,5.64,0.5,-31.9,966.5,13.8
294,2020-02-10,4.9,6.4,3.3,63.1,80,49.2,5.59,355.6,-46.4,975.3,0.8
295,2020-02-11,3.6,4.8,1.9,70.1,82.2,55.9,5.51,355.4,-41.9,984.6,2.8
296,2020-02-12,3.5,5.7,1.1,66.4,79.3,53.9,3.75,356.4,-37.8,996.3,0.4
297,2020-02-13,4.1,5.8,0.7,83.8,87.3,77.2,1.4,215.8,-20.2,989.6,8.2
298,2020-02-14,6.3,10.7,2.1,75.9,89.6,59.5,2.95,2.5,-22.9,1000.2,0.2
299,2020-02-15,8.2,11.9,4.5,78.2,86.7,59.3,3.44,6.7,-33.2,983.9,9.8
300,2020-02-16,6.9,9.9,4.9,64.3,86.1,48.4,5.75,357.3,-18.2,972.7,9.4
301,2020-02-17,6.7,9.4,4.3,62.3,72.8,54.2,5.77,356.1,-24.8,987.9,0
302,2020-02-18,5.3,8.1,3.4,67,76.4,54,4.07,355.8,-34.8,998.6,1.4
303,2020-02-19,6,10,3.5,71.7,84.7,59.7,3.42,359.3,-24.6,1000.3,0
304,2020-02-20,7,10.4,4.1,69.7,81.4,57.9,4.16,356.7,-23.2,992.9,2.6
305,2020-02-21,8.7,11.4,5.7,67.5,77.5,60.1,6.42,356.5,-15.2,998,1.2
306,2020-02-22,6.7,10.6,3.5,64.6,81.7,50.6,5.77,355.8,-25.2,996.7,9.8
307,2020-02-23,4.9,7.1,3.4,73.1,85.7,53.1,2.76,354.3,-9.8,1002.6,2.4
308,2020-02-24,3.6,8.3,0.8,78.9,88.4,69.9,2.3,357.6,-19.7,993,11.4
309,2020-02-25,4.1,7,2.1,69.9,80.8,50,2.65,353.8,-11.6,984.9,0
310,2020-02-26,3.2,7,1.1,69.7,82.3,38.7,2.14,355.5,-20.4,990.2,0
311,2020-02-27,3.7,6.6,1.7,67.4,77.9,45.6,2.58,354.5,-12.4,992.4,0
312,2020-02-28,4.5,9,3.2,77.4,88.9,62.5,1.91,12.9,-20.9,988.6,0.4
313,2020-02-29,6.4,9.7,2.1,70.3,86.6,44.6,4.46,3.3,9.7,964.8,2.4
314,2020-03-01,5.4,7.7,3.1,63.9,77,46.8,5.87,356.2,-21,967.7,1.2
315,2020-03-02,3.7,7.2,1.4,68.3,81.3,47.8,2.26,357.6,-26.5,977.8,0
316,2020-03-03,4.5,9.8,0.6,73.5,83.3,53.7,1.89,358.7,-4.2,989,0
317,2020-03-04,4.6,8.3,2,67.4,80.5,46.9,1.32,359.8,-25.4,998.2,0
318,2020-03-05,3.3,9,-1,75,88.9,49.3,0.75,302.8,-14.6,992.3,0
319,2020-03-06,4,9.7,-0.5,69.2,85.8,41.1,1.37,358.8,-4.3,996.6,0
320,2020-03-07,8.5,12.2,3.8,71.9,79.4,63.2,4.1,0.4,5.5,996.2,0
321,2020-03-08,8.4,10.8,4.7,66.9,84.6,46.5,3.5,357.3,3.9,987.9,1.2
322,2020-03-09,6.9,11.4,3.6,71.9,85.1,52,2.84,0.7,-15.3,992.9,2.2
323,2020-03-10,9.9,12.3,6.2,65.5,74.1,55.6,4.45,355.3,-1,986.7,0.4
324,2020-03-11,7,10.9,3.6,69,85.5,53.8,4.31,357.1,-31.6,990.1,11
325,2020-03-12,5.3,8.3,2.4,66.9,79.6,52.6,5.5,356.2,-12,988.3,1.8
326,2020-03-13,5.2,7.9,2.8,69,84,44.4,1.62,290.5,1.1,1006.4,1
327,2020-03-14,7.6,10.7,4.3,74.6,85.4,61.9,2.58,11.7,6.4,998.8,0
328,2020-03-15,8.6,10.4,5.6,66.7,81.1,53.2,4.75,354.8,1.1,992.6,0.4
329,2020-03-16,6.8,10.2,3,66.8,85.2,42,3.64,358.7,7.7,1007.9,0
330,2020-03-17,10.8,13.3,8.6,68,84.1,49.6,3.87,357.9,-9.9,1008.2,0.2
331,2020-03-18,6.8,10,4.1,63.6,81.5,48.5,2.28,355.2,-2,1013.1,0
332,2020-03-19,5.2,10,2.2,67.9,82.5,46.7,1.52,325.6,-17.7,1020,0
333,2020-03-20,4.7,8.7,0.7,71.2,83.7,46.4,1.29,227.1,2.8,1026.2,0
334,2020-03-21,5.5,7.7,4.1,63.6,76.8,47.3,1.14,265.7,5.4,1023.4,0
335,2020-03-22,5.7,9.2,2.6,61.9,77.8,51.3,1.16,16.4,18.7,1021.8,0
336,2020-03-23,6.4,12.1,1.4,60.7,81.7,37.2,2.63,17.3,-0.1,1016.8,0
337,2020-03-24,9.5,15,3.7,59,75,45.9,2.04,9.9,-5,1012.1,0
338,2020-03-25,12.5,17.2,8.7,59.7,77.1,39.6,1.93,0.9,20,1014.6,0
339,2020-03-26,8,12.9,3.9,71.6,89.3,34.1,1.33,217.3,28.7,1018.2,0
340,2020-03-27,6,10.5,1.9,76.3,89.2,33.2,1.52,217.1,43.5,1021.7,0.4
341,2020-03-28,5.8,7.9,3.5,68.6,83.5,43.3,3.18,209.2,15.4,1029,0.8
342,2020-03-29,4.3,5.4,2.2,57.6,76.9,43.4,2.58,212.7,4.7,1035.8,0.8
343,2020-03-30,7,10.9,4.4,63.6,78.9,40.1,2.79,204.2,40.2,1029.1,0
344,2020-03-31,6.9,9.5,4.8,66.4,83.8,46,1.39,232.1,4.9,1025.3,0
345,2020-04-01,7.9,11.3,6,64.5,77.4,47.1,2.37,354.6,26.9,1012.6,0
346,2020-04-02,8.6,11.9,4.2,56.4,77.6,38.7,3.14,355.3,5.9,1002,0.2
347,2020-04-03,6.5,9.9,3.1,64.3,79,51.5,2.38,354.7,1.9,1006,0.4
348,2020-04-04,9.2,11.5,5,63.7,84.2,44.3,2.16,3,-0.3,1008.2,0
349,2020-04-05,12.6,18.7,5.4,51.1,73.8,32.2,2.27,23.8,28.8,1002.1,0
350,2020-04-06,11.8,14.4,8.1,51.9,70.7,34.4,3.38,358.8,21.1,1005.1,0
351,2020-04-07,11.3,17.8,5.1,53.8,81,28.5,2.23,6.2,35,1019.2,0
352,2020-04-08,12.2,18.4,6.8,53.8,83.8,39,1.76,353.8,29,1016.6,0